Погода в Шишкине

Россия / Забайкальский край     52°18′34″N   113°34′54″E
темп.,
°C
ветер,
м/с
пор.,
м/с
влажн.,
%
обл.,
%
осадки,
мм/ч
давл.,
гПа
погр.,
м
22 апреля, чт
чт2200:00+2с41051100 0.0 1015716
03:000ссз3666100 0.0 1017235
06:00−1ссз4947100 0.1 1020630
09:000с5734100 0.3 1023867
12:00+4с562077 0.0 10231446
15:00+7с551724 0.0 10221801
18:00+6с6617100 0.0 10241763
21:00+3с4826100 0.1 1028579
23 апреля, пт
пт2300:00+1ссв3633100 0.0 1031371
03:00−2ссв3638100 0.1 1035274
06:00−2с243997 0.1 1038347
09:000ссв342828 0.1 1039880
12:00+3с3419100 0.0 10381508
15:00+7с341486 0.0 10351860
18:00+6с3314100 0.0 10351730
21:00+2ссв222191 0.0 103729
24 апреля, сб
сб2400:000с1124100 0.0 103813
03:00−1ссв1129100 0.0 103813
06:00−2с2233100 0.0 103830
09:00+2с1124100 0.0 1038246
12:00+8ссв1115100 0.0 1034907
15:00+11вюв121196 0.0 10301294
18:00+11юв2310100 0.0 10261572
21:00+6юв2319100 0.0 102738
25 апреля, вс
вс2500:00+5в2224100 0.0 102647
03:00+4вюв2327100 0.0 102449
06:00+4вюв2341100 0.1 1022141
09:00+3ююв51173100 1.0 1021688
12:00+7юв61041100 1.1 10161083
15:00+6ю586299 1.2 10141024
18:00+6ю1573100 0.1 10121043
21:00+4зсз3696100 0.3 1012653
26 апреля, пн
пн2600:00+2зсз2796100 0.1 1012508
03:00+2зсз3780100 0.1 1009502
06:00+1зсз3680100 0.0 1009367
09:00+4сз5768100 0.0 1007911
12:00+9ссз574580 0.0 10041734
15:00+11с663596 0.0 10022289
18:00+11ссв5732100 0.0 10012233
21:00+6сз5960100 0.1 1004605